Weather History for Weaverville, CA

Change the Weather History Date:

Tuesday, May 28, 2013

  Actual Average (KRDD) Record (KRDD)
Temperature  
Mean Temperature 60 °F -  
Max Temperature 71 °F 85 °F 100 °F (2009)
Min Temperature 50 °F 57 °F 45 °F (2006)
Degree Days  
Heating Degree Days 4    
Cooling Degree Days 0    
Growing Degree Days 10 (Base 50)    
Moisture  
Dew Point 44 °F    
Average Humidity 62    
Maximum Humidity 100    
Minimum Humidity 23    
Precipitation  
Precipitation 0.00 in 0.06 in 1.48 in (1998)
Month to date precipitation 1.69  
Year to date precipitation 20.01  
Since 1 July precipitation 33.77  
Sea Level Pressure  
Sea Level Pressure 29.94 in    
Wind  
Wind Speed 4 mph (SW)    
Max Wind Speed 12 mph    
Max Gust Speed 18 mph    
Visibility 10 miles    
Events      
T = Trace of Precipitation, MM = Missing Value Source: NWS Daily Summary

Daily Weather History Graph

Daily Weather History Graph

Search for Another Location

Airport:

Trip Planner

Search our weather history database for the weather conditions in past years. The results will help you decide how hot, cold, wet, or windy it might be!

Date:

Astronomy

May. 28, 2013 Rise Set
Actual Time 5:44 AM PDT 8:34 PM PDT
Civil Twilight 5:12 AM PDT 9:06 PM PDT
Nautical Twilight 4:31 AM PDT 9:47 PM PDT
Astronomical Twilight 3:44 AM PDT 10:34 PM PDT
Moon No Moon Rise 9:39 AM PDT (5/28)
Length of Visible Light 15h 54m
Length of Day
14h 49m
Waning Gibbous, 82% of the Moon is Illuminated
May 28
Waning Gibbous
May 31
Last Quarter
Jun 8
New
Jun 16
First Quarter
Jun 23
Full

Hourly Weather History & Observations

Time (PDT) Temp. Dew Point Humidity Pressure Visibility Wind Dir Wind Speed Gust Speed Precip Events Conditions
12:15 AM 50.0 °F 50.0 °F 100% 29.94 in 10.0 mi SSE 3.5 mph - N/A   Mostly Cloudy
12:35 AM 50.0 °F 48.2 °F 94% 29.94 in 10.0 mi Calm Calm - N/A   Mostly Cloudy
12:55 AM 50.0 °F 48.2 °F 94% 29.94 in 10.0 mi Calm Calm - N/A   Mostly Cloudy
1:15 AM 50.0 °F 48.2 °F 94% 29.94 in 10.0 mi Calm Calm - N/A   Overcast
1:35 AM 50.0 °F 48.2 °F 94% 29.94 in 10.0 mi Calm Calm - N/A   Overcast
1:55 AM 50.0 °F 48.2 °F 94% 29.94 in 10.0 mi SSW 3.5 mph - N/A   Overcast
2:15 AM 50.0 °F 48.2 °F 94% 29.94 in 10.0 mi SSW 3.5 mph - N/A   Overcast
2:35 AM 50.0 °F 48.2 °F 94% 29.94 in 10.0 mi South 3.5 mph - N/A   Overcast
2:55 AM 50.0 °F 48.2 °F 94% 29.94 in 10.0 mi SSW 3.5 mph - N/A   Overcast
3:15 AM 50.0 °F 48.2 °F 94% 29.94 in 10.0 mi SSW 4.6 mph - N/A   Overcast
3:35 AM 50.0 °F 48.2 °F 94% 29.94 in 10.0 mi South 4.6 mph - N/A   Overcast
3:55 AM 50.0 °F 48.2 °F 94% 29.94 in 10.0 mi Calm Calm - N/A   Overcast
4:15 AM 50.0 °F 48.2 °F 94% 29.94 in 10.0 mi South 3.5 mph - N/A   Overcast
4:35 AM 50.0 °F 48.2 °F 94% 29.94 in 10.0 mi Calm Calm - N/A   Overcast
4:55 AM 50.0 °F 48.2 °F 94% 29.94 in 10.0 mi Calm Calm - N/A   Overcast
5:15 AM 50.0 °F 48.2 °F 94% 29.94 in 10.0 mi Calm Calm - N/A   Overcast
5:35 AM 50.0 °F 48.2 °F 94% 29.94 in 10.0 mi South 4.6 mph - N/A   Overcast
5:55 AM 50.0 °F 48.2 °F 94% 29.95 in 10.0 mi South 4.6 mph - N/A   Overcast
6:15 AM 50.0 °F 48.2 °F 94% 29.95 in 10.0 mi SW 8.1 mph - N/A   Overcast
6:35 AM 50.0 °F 48.2 °F 94% 29.95 in 10.0 mi SSW 5.8 mph - N/A   Mostly Cloudy
6:55 AM 50.0 °F 48.2 °F 94% 29.96 in 10.0 mi SW 6.9 mph - N/A   Clear
7:15 AM 50.0 °F 46.4 °F 87% 29.96 in 10.0 mi South 6.9 mph - N/A   Clear
7:35 AM 51.8 °F 48.2 °F 88% 29.96 in 10.0 mi South 4.6 mph - N/A   Clear
7:55 AM 53.6 °F 46.4 °F 77% 29.97 in 10.0 mi West 3.5 mph - N/A   Partly Cloudy
8:15 AM 55.4 °F 46.4 °F 72% 29.97 in 10.0 mi WSW 4.6 mph - N/A   Partly Cloudy
8:35 AM 55.4 °F 44.6 °F 67% 29.97 in 10.0 mi WNW 5.8 mph - N/A   Clear
8:55 AM 55.4 °F 44.6 °F 67% 29.97 in 10.0 mi WSW 3.5 mph - N/A   Partly Cloudy
9:15 AM 57.2 °F 44.6 °F 63% 29.98 in 10.0 mi WSW 3.5 mph - N/A   Partly Cloudy
9:35 AM 57.2 °F 44.6 °F 63% 29.98 in 10.0 mi SW 4.6 mph - N/A   Clear
9:55 AM 59.0 °F 44.6 °F 59% 29.98 in 10.0 mi SSW 4.6 mph - N/A   Clear
10:15 AM 59.0 °F 44.6 °F 59% 29.99 in 10.0 mi WSW 5.8 mph - N/A   Clear
10:35 AM 59.0 °F 44.6 °F 59% 29.98 in 10.0 mi SSW 6.9 mph - N/A   Scattered Clouds
10:55 AM 60.8 °F 42.8 °F 52% 29.99 in 10.0 mi SSW 5.8 mph - N/A   Scattered Clouds
11:15 AM 60.8 °F 42.8 °F 52% 29.99 in 10.0 mi SW 3.5 mph - N/A   Scattered Clouds
11:35 AM 62.6 °F 42.8 °F 48% 29.99 in 10.0 mi SSW 8.1 mph - N/A   Mostly Cloudy
11:55 AM 64.4 °F 44.6 °F 49% 29.99 in 10.0 mi West 4.6 mph - N/A   Scattered Clouds
12:15 PM 64.4 °F 42.8 °F 45% 29.98 in 10.0 mi West 5.8 mph - N/A   Partly Cloudy
12:35 PM 64.4 °F 42.8 °F 45% 29.98 in 10.0 mi South 5.8 mph - N/A   Scattered Clouds
12:55 PM 64.4 °F 42.8 °F 45% 29.98 in 10.0 mi South 6.9 mph - N/A   Mostly Cloudy
1:15 PM 66.2 °F 41.0 °F 40% 29.98 in 10.0 mi Calm Calm - N/A   Partly Cloudy
1:35 PM 68.0 °F 39.2 °F 35% 29.97 in 10.0 mi West 6.9 mph - N/A   Clear
1:55 PM 68.0 °F 39.2 °F 35% 29.97 in 10.0 mi West 6.9 mph - N/A   Clear
2:15 PM 68.0 °F 37.4 °F 33% 29.96 in 10.0 mi SW 10.4 mph - N/A   Clear
2:35 PM 69.8 °F 37.4 °F 31% 29.96 in 10.0 mi SW 6.9 mph - N/A   Clear
2:55 PM 71.6 °F 35.6 °F 27% 29.95 in 10.0 mi WSW 11.5 mph 18.4 mph N/A   Clear
3:15 PM 69.8 °F 37.4 °F 31% 29.94 in 10.0 mi WSW 8.1 mph - N/A   Clear
3:35 PM 71.6 °F 32.0 °F 23% 29.94 in 10.0 mi WSW 8.1 mph 16.1 mph N/A   Clear
3:55 PM 71.6 °F 33.8 °F 25% 29.93 in 10.0 mi WSW 8.1 mph 16.1 mph N/A   Clear
4:15 PM 71.6 °F 37.4 °F 29% 29.93 in 10.0 mi West 4.6 mph - N/A   Clear
4:35 PM 71.6 °F 37.4 °F 29% 29.93 in 10.0 mi SW 9.2 mph - N/A   Clear
4:55 PM 71.6 °F 37.4 °F 29% 29.93 in 10.0 mi West 5.8 mph - N/A   Clear
5:15 PM 71.6 °F 37.4 °F 29% 29.92 in 10.0 mi West 4.6 mph - N/A   Clear
5:35 PM 71.6 °F 39.2 °F 31% 29.91 in 10.0 mi SW 9.2 mph - N/A   Partly Cloudy
5:55 PM 71.6 °F 37.4 °F 29% 29.90 in 10.0 mi West 3.5 mph - N/A   Scattered Clouds
6:15 PM 71.6 °F 39.2 °F 31% 29.90 in 10.0 mi NW 9.2 mph - N/A   Partly Cloudy
6:35 PM 71.6 °F 41.0 °F 33% 29.90 in 10.0 mi WNW 4.6 mph - N/A   Clear
6:55 PM 68.0 °F 42.8 °F 40% 29.90 in 10.0 mi West 9.2 mph - N/A   Clear
7:15 PM 68.0 °F 42.8 °F 40% 29.91 in 10.0 mi West 3.5 mph - N/A   Clear
7:35 PM 66.2 °F 42.8 °F 43% 29.90 in 10.0 mi West 5.8 mph - N/A   Scattered Clouds
7:55 PM 66.2 °F 44.6 °F 46% 29.90 in 10.0 mi West 6.9 mph - N/A   Overcast
8:15 PM 66.2 °F 44.6 °F 46% 29.90 in 10.0 mi Calm Calm - N/A   Overcast
8:35 PM 64.4 °F 44.6 °F 49% 29.90 in 10.0 mi West 3.5 mph - N/A   Overcast
8:55 PM 62.6 °F 44.6 °F 52% 29.91 in 10.0 mi SW 3.5 mph - N/A   Mostly Cloudy
9:15 PM 62.6 °F 44.6 °F 52% 29.90 in 10.0 mi Calm Calm - N/A   Mostly Cloudy
9:35 PM 62.6 °F 46.4 °F 55% 29.90 in 10.0 mi Calm Calm - N/A   Overcast
9:55 PM 59.0 °F 46.4 °F 63% 29.90 in 10.0 mi Calm Calm - N/A   Overcast
10:15 PM 59.0 °F 48.2 °F 67% 29.90 in 10.0 mi Calm Calm - N/A   Overcast
10:35 PM 59.0 °F 48.2 °F 67% 29.90 in 10.0 mi Calm Calm - N/A   Overcast
10:55 PM 59.0 °F 48.2 °F 67% 29.90 in 10.0 mi Calm Calm - N/A   Overcast
11:15 PM 59.0 °F 46.4 °F 63% 29.89 in 10.0 mi SSE 4.6 mph - N/A   Overcast
11:35 PM 59.0 °F 44.6 °F 59% 29.89 in 10.0 mi South 3.5 mph - N/A   Overcast
11:55 PM 60.8 °F 44.6 °F 55% 29.89 in 10.0 mi SSW 4.6 mph - N/A   Mostly Cloudy